Content
SEND FEEDBACK

Daily
Averages
Monthly
Summary
Finland

HELSINKI, FINLAND


Home > Europe > Finland
Elevation: 184 feet     Latitude: 60 19N     Longitude: 024 58E

WEATHER
 
SELECT A DAY
Number of Records: 312,084;   Date Range: 7/1/96 - 8/31/14
 
SHARE

PRINT THIS DATA

[ ← Previous Day ]
WEATHER ALMANAC - JANUARY 3, 2013
[ Next Day → ]
[ °C ]   °F
Weather ElementAverageHighLow
Temperature32 °F33.8 °F (12:50 am)30.2 °F (5:20 pm)
Dewpoint30.2 °F32 °F (12:50 am)26.6 °F (9:50 am)
Humidity93.1 %100 % (3:20 am)75 % (9:50 am)
Barometer29.57 in29.61 in (2:00 pm)29.56 in (12:50 am)
Wind Speed6 mph10.4 mph (5:20 am)
Weather ElementAverage
Visibility5.7 mi
Wind DirectionSW (220.2 °)

Weather ElementTotal
Precipitation---
Heating Degree Days33 (Base 65)
Averaged from 51 records on January 3, 2013
WEATHER CONDITIONS BREAKOUT
WIND DIRECTION BREAKOUT
WEATHER BY HOUR - JANUARY 3, 2013
[ °C ]   °F
Local TimeTemperatureDewpointHumidityBarometerVisibilityWind DirectionWind SpeedGust SpeedPrecipitationEventsConditions
12:50 AM33.8 °F32.0 °F93 %29.56 in6.2 miWSW (250°)6.9 mphMostly Cloudy
1:20 AM33.8 °F32.0 °F93 %29.56 in6.2 miWSW (240°)5.8 mphMostly Cloudy
1:50 AM33.8 °F32.0 °F93 %29.56 in6.2 miWSW (250°)6.9 mphMostly Cloudy
2:00 AM33.0 °F32.0 °F92 %29.60 in19.0 miWest (260°)8.9 mphPartly Cloudy
2:20 AM33.8 °F32.0 °F93 %29.56 in6.2 miWSW (250°)6.9 mphMostly Cloudy
2:50 AM33.8 °F32.0 °F93 %29.56 in6.2 miWSW (250°)6.9 mphMostly Cloudy
3:20 AM32.0 °F32.0 °F100 %29.56 in4.3 miWSW (250°)6.9 mphSnowLight Snow
3:50 AM32.0 °F32.0 °F100 %29.56 in6.2 miWSW (240°)4.6 mphSnowLight Snow
4:20 AM32.0 °F32.0 °F100 %29.56 in6.2 miWSW (240°)5.8 mphSnowLight Snow
4:50 AM32.0 °F32.0 °F100 %29.56 in6.2 miWSW (250°)8.1 mphSnowLight Snow
5:20 AM32.0 °F30.2 °F93 %29.56 in5.6 miWest (260°)10.4 mphSnowLight Snow
5:50 AM32.0 °F30.2 °F93 %29.56 in6.2 miWest (270°)8.1 mphMostly Cloudy
6:20 AM32.0 °F30.2 °F93 %29.56 in6.2 miWest (270°)6.9 mphMostly Cloudy
6:50 AM32.0 °F30.2 °F93 %29.56 in6.2 miWest (260°)8.1 mphMostly Cloudy
7:20 AM32.0 °F30.2 °F93 %29.56 in6.2 miWest (270°)9.2 mphMostly Cloudy
7:50 AM32.0 °F30.2 °F93 %29.59 in6.2 miWSW (250°)5.8 mphSnowLight Snow Showers
8:00 AM32.0 °F31.0 °F94 %29.60 in12.0 miWest (270°)6.7 mphSnowLight Snow Showers
8:20 AM32.0 °F30.2 °F93 %29.59 in6.2 miWSW (250°)6.9 mphMostly Cloudy
8:50 AM32.0 °F30.2 °F93 %29.59 in6.2 miWSW (250°)9.2 mphSnowLight Snow Showers
9:20 AM32.0 °F30.2 °F93 %29.59 in6.2 miWest (260°)9.2 mphMostly Cloudy
9:50 AM33.8 °F26.6 °F75 %29.59 in6.2 miWest (280°)9.2 mphMostly Cloudy
10:20 AM32.0 °F26.6 °F80 %29.59 in6.2 miWNW (290°)6.9 mphMostly Cloudy
10:50 AM32.0 °F30.2 °F93 %29.59 in6.2 miWest (260°)6.9 mphSnowLight Snow
11:20 AM32.0 °F30.2 °F93 %29.59 in6.2 miSW (230°)5.8 mphSnowLight Snow
11:50 AM32.0 °F30.2 °F93 %29.59 in6.2 miWSW (240°)5.8 mphSnowLight Snow
12:20 PM32.0 °F30.2 °F93 %29.59 in6.2 miSW (230°)5.8 mphMostly Cloudy
12:50 PM32.0 °F28.4 °F87 %29.59 in5.6 miWSW (240°)8.1 mphSnowLight Snow Showers
1:20 PM32.0 °F30.2 °F93 %29.59 in5.6 miSW (230°)4.6 mphSnowLight Snow Showers
1:50 PM32.0 °F28.4 °F87 %29.59 in6.2 miSW (220°)5.8 mphSnowLight Snow Showers
2:00 PM32.0 °F30.0 °F89 %29.61 in9.0 miWSW (240°)6.7 mphSnowLight Snow Showers
2:20 PM32.0 °F28.4 °F87 %29.59 in6.2 miSW (230°)5.8 mphSnowLight Snow Showers
2:50 PM32.0 °F28.4 °F87 %29.59 in6.2 miWSW (240°)5.8 mphSnowLight Snow Showers
3:20 PM32.0 °F28.4 °F87 %29.59 in6.2 miSW (230°)3.5 mphMostly Cloudy
3:50 PM32.0 °F30.2 °F93 %29.59 in1.6 miSSW (210°)4.6 mphSnowLight Snow Showers
4:20 PM32.0 °F30.2 °F93 %29.56 in5.0 miSSW (200°)3.5 mphSnowLight Snow Showers
4:50 PM32.0 °F30.2 °F93 %29.56 in5.0 miSSW (200°)4.6 mphSnowLight Snow
5:20 PM30.2 °F30.2 °F100 %29.56 in2.5 miSSW (210°)4.6 mphSnowLight Snow
5:50 PM32.0 °F30.2 °F93 %29.56 in2.5 miSSW (210°)3.5 mphSnowLight Snow
6:20 PM30.2 °F30.2 °F100 %29.56 in3.1 miSSW (200°)6.9 mphSnowLight Snow
6:50 PM30.2 °F28.4 °F93 %29.56 in6.2 miSW (220°)2.3 mphMostly Cloudy
7:20 PM30.2 °F28.4 °F93 %29.56 in3.1 miSouth (190°)3.5 mphSnowLight Snow Showers
7:50 PM30.2 °F28.4 °F93 %29.56 in6.2 miSSE (150°)4.6 mphMostly Cloudy
8:00 PM31.0 °F30.0 °F93 %29.59 in9.0 miSouth (180°)4.5 mphSnowLight Snow Showers
8:20 PM30.2 °F30.2 °F100 %29.56 in5.0 miSE (140°)4.6 mphSnowLight Snow
8:50 PM30.2 °F30.2 °F100 %29.56 in5.0 miSE (130°)4.6 mphMostly Cloudy
9:20 PM32.0 °F30.2 °F93 %29.56 in3.7 miESE (120°)3.5 mphSnowLight Snow Grains
9:50 PM32.0 °F30.2 °F93 %29.56 in3.1 miSE (130°)4.6 mphSnowLight Snow
10:20 PM32.0 °F30.2 °F93 %29.56 in2.8 miESE (110°)3.5 mphSnowLight Snow
10:50 PM32.0 °F30.2 °F93 %29.56 in2.5 miESE (120°)4.6 mphMostly Cloudy
11:20 PM32.0 °F32.0 °F100 %29.56 in1.9 miSE (130°)5.8 mphMostly Cloudy
11:50 PM32.0 °F32.0 °F100 %29.56 in1.6 miSE (130°)4.6 mphMostly Cloudy
Hourly data recorded from EFHK, located miles away from Helsinki, Finland







STORIES FROM OUR PARTNERS